Other Surface Observations
Issued by NWS Jacksonville, FL

Home | Current Version | Previous Version | Text Only | Print | Product List | Glossary On
Versions: 1 2 3 4 5 6 7 8 9 10 11 12 13 14 15 16 17 18 19 20 21 22 23 24 25 26 27 28 29 30 31 32 33 34 35 36 37 38 39 40 41 42 43 44 45 46 47 48 49 50
000
SXUS52 KJAX 311210
OSOJAX
OTHER SURFACE OBSERVATIONS
NATIONAL WEATHER SERVICE JACKSONVILLE FL
800 AM EDT FRI OCT 31 2014

FLZ020>025-030>033-035>038-040-311300-
...FLORIDA...

CITY           SKY/WX    TMP DP  RH WIND       PRES   REMARKS
CECIL FIELD    PTCLDY    54  54 100 CALM      29.88R
HERLONG FIELD  NOT AVBL
FERNANDINA BCH NOT AVBL
LAKE CITY      FAIR      50  46  87 CALM      29.90R
JUNIPER SPGS   NOT AVBL
BUNNELL        PTSUNNY  N/A N/A N/A W6        29.86R
KEYSTONE HGTS    N/A     54  54 100 N5        29.89R
$$

GAZ132>136-149>154-162>166-311300-
...GEORGIA...

CITY           SKY/WX    TMP DP  RH WIND       PRES   REMARKS
JESUP          FAIR      52  52 100 CALM      29.91R FOG
HOMERVILLE     FAIR      50  46  87 CALM      29.92R
SWAINSBORO     FAIR      43  43 100 MISG      29.92R
CORDELE        NOT AVBL
$$

PLEASE NOTE:  THESE OBSERVATIONS ARE NOT QUALITY CONTROLLED AND MAY
NOT BE AVAILABLE AT ALL TIMES.
$$



USA.gov is the U.S. government's official web portal to all federal, state and local government web resources and services.